Change the Weather History Date:

Sunday, January 26, 2014

  Actual Average Record
Temperature  
Mean Temperature 27 °F 26 °F  
Max Temperature 47 °F 35 °F 63 °F (2002)
Min Temperature 7 °F 17 °F -15 °F (1904)
Degree Days  
Heating Degree Days 38 39  
Month to date heating degree days 1147 1014  
Since 1 July heating degree days 3664 3200  
Cooling Degree Days 0 0  
Month to date cooling degree days 0 0  
Year to date cooling degree days 0 0  
Moisture  
Dew Point 19 °F    
Average Humidity 53    
Maximum Humidity 65    
Minimum Humidity 40    
Precipitation  
Precipitation T in 0.04 in 0.58 in (1962)
Month to date precipitation 0.93 1.05  
Year to date precipitation 0.93 1.05  
Sea Level Pressure  
Sea Level Pressure 29.65 in    
Wind  
Wind Speed 17 mph (WNW)    
Max Wind Speed 35 mph    
Max Gust Speed 53 mph    
Visibility 9 miles    
Events Rain , Snow    
T = Trace of Precipitation, MM = Missing Value Source: NWS Daily Summary

Daily Weather History Graph

Daily Weather History Graph

Search for Another Location

Airport or City:

Trip Planner

Search our weather history database for the weather conditions in past years. The results will help you decide how hot, cold, wet, or windy it might be!

Date:

Astronomy

Jan. 26, 2014 Rise Set
Actual Time 7:19 AM CST 5:14 PM CST
Civil Twilight 6:50 AM CST 5:44 PM CST
Nautical Twilight 6:17 AM CST 6:17 PM CST
Astronomical Twilight 5:44 AM CST 6:49 PM CST
Moon 2:57 AM CST (1/26) 1:04 PM CST (1/26)
Length of Visible Light 10h 53m
Length of Day
9h 54m
Waning Crescent, 23% of the Moon is Illuminated
Jan 26
Waning Crescent
Jan 30
New
Feb 6
First Quarter
Feb 14
Full
Feb 22
Last Quarter

Hourly Weather History & Observations

Time (CST) Temp. Windchill Dew Point Humidity Pressure Visibility Wind Dir Wind Speed Gust Speed Precip Events Conditions
12:53 AM 21.0 °F 9.3 °F 3.9 °F 48% 29.70 in 10.0 mi SSE 11.5 mph - N/A   Overcast
1:53 AM 21.9 °F 8.7 °F 6.1 °F 51% 29.62 in 10.0 mi SSE 15.0 mph - N/A   Overcast
2:53 AM 24.1 °F 13.1 °F 8.1 °F 51% 29.55 in 10.0 mi South 11.5 mph 24.2 mph N/A   Overcast
3:53 AM 26.1 °F 14.0 °F 10.0 °F 51% 29.50 in 10.0 mi South 15.0 mph - N/A   Overcast
4:53 AM 30.0 °F 19.1 °F 14.0 °F 51% 29.47 in 10.0 mi SW 15.0 mph - N/A   Overcast
5:53 AM 32.0 °F 23.0 °F 18.0 °F 56% 29.47 in 10.0 mi SW 11.5 mph - N/A   Overcast
6:53 AM 39.9 °F 31.8 °F 28.9 °F 65% 29.50 in 10.0 mi WNW 15.0 mph 24.2 mph N/A   Mostly Cloudy
7:53 AM 41.0 °F 34.3 °F 30.9 °F 67% 29.51 in 10.0 mi WNW 11.5 mph - N/A   Overcast
8:53 AM 42.1 °F 34.2 °F 30.0 °F 62% 29.52 in 10.0 mi WNW 16.1 mph 25.3 mph N/A   Overcast
9:53 AM 41.0 °F 33.1 °F 30.0 °F 65% 29.57 in 10.0 mi WNW 15.0 mph 26.5 mph N/A   Overcast
10:53 AM 44.1 °F 36.2 °F 28.0 °F 53% 29.56 in 10.0 mi WNW 18.4 mph 28.8 mph N/A   Mostly Cloudy
11:53 AM 44.1 °F 37.7 °F 28.0 °F 53% 29.55 in 10.0 mi NW 12.7 mph 23.0 mph N/A   Clear
12:53 PM 44.1 °F 37.1 °F 21.0 °F 40% 29.55 in 10.0 mi NW 15.0 mph 25.3 mph N/A   Clear
1:53 PM 45.0 °F 38.5 °F 24.1 °F 44% 29.54 in 10.0 mi West 13.8 mph 21.9 mph N/A   Clear
2:53 PM 46.0 °F 40.6 °F 28.0 °F 50% 29.52 in 10.0 mi West 11.5 mph - N/A   Mostly Cloudy
3:53 PM 44.1 °F 38.6 °F 30.0 °F 58% 29.52 in 10.0 mi WSW 10.4 mph - N/A   Mostly Cloudy
4:53 PM 44.1 °F 37.1 °F 28.9 °F 55% 29.51 in 10.0 mi SW 15.0 mph - N/A   Scattered Clouds
5:53 PM 45.0 °F 35.6 °F 30.9 °F 58% 29.58 in 10.0 mi NNW 27.6 mph 41.4 mph 0.00 in Rain Light Rain
6:01 PM 34.0 °F 19.7 °F 27.0 °F 75% 29.60 in 5.0 mi North 33.4 mph 44.9 mph 0.00 in Snow Light Snow
6:12 PM 30.0 °F 15.2 °F 24.1 °F 79% 29.64 in 2.5 mi NNW 28.8 mph 43.7 mph 0.00 in Snow Light Snow
6:19 PM 28.9 °F 14.3 °F 25.0 °F 85% 29.65 in 0.8 mi NNW 26.5 mph 43.7 mph 0.00 in Snow Light Snow
6:27 PM 28.0 °F 13.3 °F 25.0 °F 88% 29.66 in 1.0 mi NNW 25.3 mph 43.7 mph 0.00 in Snow Light Snow
6:36 PM 28.0 °F 13.9 °F 24.1 °F 85% 29.67 in 3.0 mi NNW 23.0 mph 35.7 mph 0.00 in Snow Light Snow
6:53 PM 28.0 °F 13.0 °F 23.0 °F 81% 29.71 in 7.0 mi NNW 26.5 mph 39.1 mph 0.00 in Snow Light Snow
7:23 PM 25.0 °F 8.1 °F 15.1 °F 66% 29.75 in 10.0 mi NNW 29.9 mph 44.9 mph 0.00 in   Overcast
7:53 PM 21.9 °F 6.2 °F 12.0 °F 66% 29.83 in 10.0 mi NNW 21.9 mph 32.2 mph 0.00 in   Overcast
8:53 PM 16.0 °F -3.2 °F 3.0 °F 57% 29.94 in 10.0 mi NNW 26.5 mph 39.1 mph 0.00 in   Overcast
9:53 PM 14.0 °F -5.8 °F -2.9 °F 47% 29.99 in 10.0 mi NW 26.5 mph 41.4 mph N/A   Clear
10:53 PM 10.0 °F -10.4 °F -4.0 °F 53% 30.07 in 10.0 mi WNW 24.2 mph 34.5 mph N/A   Overcast
11:53 PM 7.0 °F -14.0 °F -7.1 °F 53% 30.12 in 10.0 mi NW 23.0 mph 38.0 mph N/A   Scattered Clouds